Temp
21 22 22 22 23 23 23 23 24 25 25 25 25 26 27 27 27 27 28 29 29 31 30 30 30 30 31 31 30 31 31 31 32 32 32 32 31 31 32 31 30 27 28 31 33 33 32 33 31 30 31 31 31 30 30 32 30 30 30 30 30 31 34
21 21 21 21 21 22 22 22 22 23 23 23 23 24 25 25 25 25 25 26 26 26 27 28 28 29 29 30 29 29 29 30 30 31 30 30 31 30 30 32 29 29 28 27 31 30 33 33 34 31 31 31 30 30 30 30 30 30 30 29 29 29 30
19 19 20 19 19 20 20 20 20 21 22 22 22 22 23 24 24 23 23 23 23 24 25 24 25 25 26 27 27 28 28 29 28 29 28 29 30 30 30 31 31 29 27 27 27 31 30 30 31 30 29 29 31 31 32 30 29 30 30 30 30 29 30
18 18 18 18 18 18 18 18 19 19 20 21 21 21 22 22 23 23 23 23 23 23 23 22 23 23 24 25 24 25 25 26 27 27 27 27 28 29 29 29 29 29 28 28 26 29 28 27 26 27 29 30 30 29 27 29 30 30 29 29 30 29 28
14 13 15 15 16 17 17 17 18 18 19 19 21 21 21 21 22 22 22 22 22 23 23 22 22 23 23 23 22 23 23 24 24 25 25 25 25 25 25 26 26 26 26 25 25 26 26 24 24 25 27 28 26 26 25 27 27 27 28 29 30 29 30
12 13 12 14 15 16 16 16 17 17 17 18 19 20 21 21 21 21 21 22 22 22 22 22 22 22 23 22 21 21 22 22 22 23 22 22 22 22 22 21 21 21 20 19 18 19 19 20 21 22 22 25 24 23 25 24 23 23 24 24 24 25 28
10 11 11 13 14 15 16 16 16 16 16 16 17 19 20 20 20 20 20 21 22 22 22 22 22 22 22 21 22 21 21 22 22 22 21 22 22 22 21 20 20 20 20 19 17 16 17 17 19 21 21 23 26 26 23 23 23 24 21 22 23 23 24
12 10 11 11 11 13 14 15 15 15 14 15 16 17 19 19 19 19 19 19 20 20 20 20 21 21 21 21 21 21 20 21 20 21 21 22 22 22 20 18 18 19 19 19 19 18 18 18 19 20 22 24 23 21 21 21 22 20 19 21 21 22 22
12 11 11 11 12 11 12 12 13 14 14 14 16 17 18 18 18 18 17 17 18 19 19 19 19 20 20 20 21 22 22 22 22 20 19 20 21 21 21 21 20 20 20 20 20 19 20 20 19 20 19 19 19 19 19 19 21 19 19 19 19 20 21
11 11 12 12 12 12 13 14 15 16 15 16 16 17 17 17 17 17 17 17 17 17 18 18 18 18 20 20 20 20 21 21 21 22 21 21 20 19 19 19 19 19 19 19 18 19 18 17 17 17 18 18 18 19 19 18 18 15 17 17 16 17 18
8 8 10 10 9 10 11 13 15 16 17 18 19 17 16 16 16 17 17 17 16 15 16 16 17 16 17 18 18 17 18 19 19 20 21 21 22 22 20 17 17 18 19 18 17 18 18 17 17 17 16 15 17 17 16 16 15 15 16 13 14 12 17
7 8 8 8 8 7 8 9 14 16 17 18 19 18 17 16 15 15 16 16 15 15 14 14 14 15 16 15 16 16 16 17 18 18 18 19 19 19 20 21 19 18 17 17 17 17 17 18 16 17 17 17 17 17 17 17 15 13 13 11 12 11 10
8 6 7 7 5 5 5 6 13 15 17 17 18 19 18 15 15 15 15 15 15 14 13 12 12 12 13 14 16 16 14 12 12 15 16 17 19 19 19 20 21 22 20 20 17 17 17 17 18 17 17 19 19 20 15 16 12 11 11 11 12 12 13
6 7 6 6 4 4 4 4 11 13 16 17 18 18 18 14 14 13 13 13 13 13 12 12 11 10 10 12 13 13 12 12 10 9 10 11 11 11 14 16 17 17 18 18 17 16 15 18 19 17 18 19 20 17 16 15 13 15 14 14 14 16 16
5 6 7 6 5 3 4 5 11 12 14 16 17 18 17 13 12 11 11 11 11 11 11 11 10 10 9 10 10 11 12 11 10 9 9 9 8 9 10 10 11 11 11 13 14 15 15 16 17 17 18 18 19 18 17 16 15 15 14 17 19 18 18
7 6 6 6 5 4 4 5 10 12 13 15 16 17 12 10 10 9 10 12 12 10 10 9 9 8 8 8 9 11 13 13 11 9 9 8 7 7 7 7 12 15 17 16 15 13 12 13 15 19 18 19 18 18 17 18 19 19 17 16 14 13 17
7 7 6 6 5 4 4 4 8 11 12 13 16 14 6 7 7 7 6 8 9 9 9 8 8 8 7 7 7 11 12 13 13 10 8 7 5 5 5 6 8 12 14 17 17 18 20 21 21 22 22 23 23 21 20 16 14 12 15 12 10 12 14
6 6 6 6 5 5 4 4 7 10 11 12 15 13 7 7 7 5 5 5 6 6 7 8 12 11 7 6 5 10 11 12 12 8 7 6 5 4 5 6 6 4 6 12 13 15 15 15 15 15 15 16 17 17 16 12 9 12 13 10 12 10 13
6 6 6 6 6 9 7 4 6 10 10 11 13 12 5 5 3 2 3 3 4 4 6 7 10 12 11 8 7 11 12 12 11 8 7 6 5 3 2 2 1 3 3 3 3 2 4 5 8 6 5 8 13 13 13 10 9 8 8 7 8 8 8
5 4 4 5 5 5 5 4 4 6 9 10 10 12 8 4 3 2 1 0 1 1 1 3 4 9 12 12 12 12 12 11 12 9 7 6 3 1 -0 3 3 6 8 8 7 4 3 4 4 4 5 5 6 8 10 10 7 6 7 7 7 7 8
5 4 4 3 4 4 4 5 4 5 9 9 9 10 9 0 2 1 -0 -1 2 0 -0 2 2 1 10 12 13 13 12 12 12 11 8 6 4 5 6 8 5 7 10 7 5 4 4 4 5 4 4 4 5 6 7 8 9 8 8 7 6 5 6
4 3 3 3 4 4 4 6 8 5 7 8 9 9 10 5 1 3 -0 -0 -2 -3 -1 0 -0 2 7 11 11 12 12 12 11 10 8 7 9 9 10 8 9 6 5 4 5 5 4 4 3 2 2 4 5 6 9 8 8 9 10 10 10 9 8
2 2 2 2 2 3 4 5 6 8 6 7 8 9 8 8 6 7 5 -1 -2 -2 -0 -1 -1 3 9 10 10 10 11 10 10 9 8 9 9 9 9 9 7 7 5 4 3 3 1 1 0 0 2 3 3 5 6 6 7 8 9 12 14 15 14
3 1 0 -0 0 2 3 5 5 6 8 6 7 8 8 8 8 8 4 0 -3 -2 -1 -1 0 1 8 9 10 10 9 9 8 7 8 8 8 8 8 7 5 4 3 3 2 2 1 1 1 0 1 1 3 4 4 1 2 3 3 3 4 7 12
3 2 2 2 2 1 1 2 2 1 6 7 6 7 7 7 7 7 7 4 2 2 -1 4 6 7 7 8 8 8 8 7 7 7 6 6 7 7 5 4 3 2 1 -0 -0 -0 0 0 2 2 3 4 -0 3 2 3 3 1 3 5 6 6 9
4 2 2 1 2 1 1 1 1 1 -1 5 5 5 6 6 6 6 6 6 4 5 5 5 6 6 6 6 6 4 2 2 3 5 6 6 6 5 4 4 2 2 1 -1 -1 -0 -0 -1 -1 -0 1 2 2 2 -0 0 2 2 4 5 6 6 6
3 3 3 2 1 1 1 0 -0 -0 -3 -2 -2 -2 -0 2 2 5 5 2 -0 2 1 3 4 3 5 5 5 5 5 5 5 4 4 3 3 3 2 2 1 -0 -1 -1 -1 -1 -0 0 0 -0 3 1 -1 0 0 1 4 3 4 5 6 5 5
2 2 2 2 1 0 -0 -1 -3 -1 -2 -1 -1 -2 -2 -2 -3 -5 -6 -4 -4 -3 -0 1 4 4 1 -1 -2 -2 -4 -3 -1 -0 0 -1 -1 -0 1 3 5 5 2 0 1 -0 -1 0 -0 -2 -4 -2 -2 -1 -0 2 3 3 1 2 3 3 3
1 3 3 3 2 0 -0 -1 -2 -3 5 3 5 -1 -7 -8 -8 -7 -7 0 5 0 -3 -4 -5 -6 -4 -5 -4 -4 -4 -4 -4 -3 -2 -2 -2 -2 -1 -2 -4 -1 -1 -1 -3 -3 -4 -4 -5 -4 -3 -1 -1 1 1 1 -1 1 -1 1 3 4 4
3 3 3 2 2 1 -1 -3 -3 6 7 6 5 5 5 4 4 4 1 3 4 3 -3 -4 -6 -6 -6 -6 -6 -6 -5 -5 -5 -4 -4 -4 0 -0 -3 -4 -5 -5 -5 -3 -2 -3 -2 -2 -2 -2 -1 -1 -0 -2 -2 1 4 -1 -0 0 -0 0 1
6 6 6 4 1 2 5 5 5 5 5 5 5 5 5 5 4 4 4 4 2 -1 -3 -5 -6 -6 -6 -5 -6 -5 -5 -4 -4 -4 -5 -5 -5 -5 -2 -0 -2 -3 -3 -2 -2 -2 -2 -1 -2 -3 -2 -2 -2 -2 -3 -5 -1 -1 -1 -1 -1 -1 -0
5 5 5 5 4 3 1 3 3 3 3 4 4 4 4 4 4 4 4 3 3 -2 -4 -5 -7 -7 -7 -7 -6 -5 -4 -4 -4 -4 -4 -6 -8 -6 -5 -4 -4 -3 -3 -3 -3 -4 -4 -4 -4 -4 -3 -3 -3 -1 -3 -4 -3 -2 -2 -1 -1 0 2
5 5 4 4 5 5 3 2 2 2 3 3 3 4 3 3 3 3 3 2 -2 -5 -6 -6 -6 -7 -7 -7 -6 -5 -5 -4 -4 -4 -4 -5 -6 -7 -6 -5 -4 -2 -5 -5 -4 -5 -6 -5 -5 -4 -4 -2 -3 -3 -4 -4 -3 -3 -3 -3 -3 -1 1
4 4 4 4 4 3 3 3 3 3 3 3 2 3 3 2 1 2 2 0 -4 -6 -7 -7 -8 -7 -7 -6 -5 -5 -4 -4 -3 -3 -5 -5 -6 -6 -7 -6 -8 -10 -6 -7 -5 -6 -7 -6 -7 -6 -8 -8 -7 -5 -4 -4 -3 -4 -4 -4 -2 -2 -2
-3 1 3 1 1 2 2 2 2 2 1 1 1 1 2 2 -2 -5 -6 -5 -5 -6 -7 -8 -7 -8 -6 -6 -6 -5 -4 -4 -4 -5 -6 -6 -7 -7 -7 -8 -6 -5 -6 -6 -8 -7 -8 -6 -5 -6 -4 -4 -5 -6 -5 -4 -4 -4 -3 -3 -3 -3 -4
-4 -5 0 3 2 2 1 1 1 1 1 1 1 1 1 -5 -7 -9 -9 -9 -8 -8 -7 -7 -7 -7 -6 -6 -5 -4 -4 -4 -4 -5 -6 -6 -7 -6 -6 -7 -7 -6 -6 -6 -6 -6 -5 -4 -5 -5 -4 -6 -5 -5 -4 -5 -5 -6 -4 -3 -3 -4 -3
MSLP
1019.95 1019.83 1019.67 1019.47 1019.35 1019.23 1019.03 1018.79 1018.55 1018.47 1018.43 1018.27 1018.15 1017.91 1017.75 1017.67 1017.55 1017.39 1017.15 1016.95 1016.83 1016.71 1016.67 1016.55 1016.55 1016.55 1016.55 1016.55 1016.63 1016.59 1016.39 1016.27 1016.15 1016.07 1016.03 1016.03 1016.11 1016.15 1016.11 1016.23 1016.35 1016.35 1016.15 1015.91 1015.75 1015.83 1015.75 1015.71 1015.91 1016.23 1016.27 1016.35 1016.47 1016.55 1016.59 1016.63 1016.75 1016.83 1016.95 1017.03 1017.07 1017.03 1016.99
1020.15 1019.99 1019.87 1019.75 1019.63 1019.51 1019.35 1019.15 1018.99 1018.83 1018.75 1018.63 1018.47 1018.23 1018.07 1018.03 1017.91 1017.83 1017.75 1017.51 1017.39 1017.35 1017.31 1017.19 1016.95 1016.83 1016.83 1016.79 1016.83 1016.79 1016.79 1016.67 1016.47 1016.27 1016.15 1016.11 1016.15 1016.27 1016.27 1016.23 1016.43 1016.43 1016.39 1016.39 1015.99 1016.03 1015.87 1015.87 1015.79 1015.87 1016.03 1016.11 1016.27 1016.35 1016.39 1016.47 1016.51 1016.59 1016.63 1016.71 1016.75 1016.79 1016.79
1020.43 1020.27 1020.07 1019.91 1019.75 1019.63 1019.55 1019.43 1019.35 1019.23 1019.07 1018.91 1018.75 1018.59 1018.43 1018.31 1018.19 1018.11 1018.11 1018.03 1017.95 1017.83 1017.67 1017.63 1017.55 1017.51 1017.35 1017.23 1017.23 1017.15 1017.07 1016.91 1016.83 1016.71 1016.63 1016.47 1016.31 1016.31 1016.31 1016.31 1016.31 1016.47 1016.55 1016.43 1016.35 1016.03 1016.07 1015.95 1015.83 1015.83 1015.79 1015.95 1015.99 1015.99 1016.07 1016.15 1016.27 1016.31 1016.35 1016.39 1016.39 1016.39 1016.39
1020.75 1020.51 1020.27 1020.11 1020.03 1019.87 1019.75 1019.67 1019.59 1019.51 1019.31 1019.19 1018.99 1018.83 1018.67 1018.59 1018.47 1018.31 1018.23 1018.23 1018.19 1018.07 1017.99 1017.99 1017.91 1017.79 1017.71 1017.59 1017.59 1017.59 1017.55 1017.35 1017.19 1017.07 1016.91 1016.79 1016.63 1016.51 1016.47 1016.39 1016.35 1016.35 1016.39 1016.35 1016.47 1016.15 1016.15 1016.03 1015.99 1015.83 1015.71 1015.67 1015.75 1015.91 1016.03 1016.07 1015.99 1015.99 1016.07 1016.03 1016.07 1016.07 1016.11
1020.95 1020.83 1020.63 1020.43 1020.19 1020.07 1019.95 1019.83 1019.71 1019.63 1019.51 1019.39 1019.19 1018.99 1018.83 1018.75 1018.67 1018.59 1018.51 1018.39 1018.31 1018.23 1018.23 1018.19 1018.19 1018.07 1017.99 1017.91 1017.91 1017.87 1017.87 1017.75 1017.63 1017.51 1017.43 1017.27 1017.07 1016.95 1016.87 1016.75 1016.63 1016.51 1016.47 1016.51 1016.51 1016.39 1016.15 1016.11 1016.11 1016.03 1015.91 1015.87 1015.87 1015.75 1015.71 1015.71 1015.67 1015.75 1015.83 1015.87 1015.79 1015.83 1015.83
1021.07 1020.87 1020.87 1020.63 1020.47 1020.23 1020.11 1020.03 1019.87 1019.75 1019.71 1019.63 1019.39 1019.11 1018.91 1018.87 1018.83 1018.75 1018.67 1018.55 1018.43 1018.39 1018.31 1018.27 1018.27 1018.27 1018.23 1018.19 1018.19 1018.11 1018.07 1018.07 1018.03 1017.95 1017.87 1017.71 1017.59 1017.47 1017.39 1017.35 1017.23 1017.15 1016.99 1016.87 1016.87 1016.83 1016.71 1016.51 1016.47 1016.31 1016.23 1016.03 1015.91 1015.95 1015.83 1015.71 1015.71 1015.63 1015.63 1015.63 1015.67 1015.75 1015.75
1021.03 1020.91 1020.83 1020.71 1020.51 1020.35 1020.23 1020.19 1020.11 1020.03 1019.91 1019.83 1019.63 1019.35 1019.07 1018.95 1018.91 1018.87 1018.79 1018.67 1018.55 1018.47 1018.43 1018.43 1018.39 1018.39 1018.35 1018.35 1018.31 1018.31 1018.27 1018.23 1018.19 1018.15 1018.07 1017.99 1017.87 1017.71 1017.63 1017.59 1017.55 1017.39 1017.27 1017.19 1017.15 1017.03 1016.91 1016.83 1016.63 1016.51 1016.43 1016.15 1015.99 1015.87 1015.87 1015.87 1015.75 1015.67 1015.59 1015.55 1015.51 1015.55 1015.59
1021.07 1020.95 1020.83 1020.75 1020.63 1020.47 1020.31 1020.23 1020.19 1020.19 1020.19 1020.07 1019.83 1019.55 1019.23 1019.07 1019.03 1019.03 1018.99 1018.95 1018.87 1018.83 1018.75 1018.71 1018.59 1018.47 1018.39 1018.39 1018.39 1018.47 1018.47 1018.43 1018.39 1018.23 1018.15 1017.95 1017.83 1017.75 1017.71 1017.67 1017.55 1017.47 1017.35 1017.27 1017.19 1017.15 1017.03 1016.83 1016.71 1016.47 1016.27 1016.11 1015.95 1015.83 1015.79 1015.71 1015.67 1015.75 1015.71 1015.55 1015.47 1015.51 1015.55
1021.03 1020.91 1020.87 1020.75 1020.67 1020.63 1020.47 1020.35 1020.27 1020.31 1020.35 1020.23 1019.91 1019.59 1019.39 1019.19 1019.15 1019.15 1019.15 1019.11 1019.07 1018.99 1018.91 1018.83 1018.75 1018.63 1018.59 1018.51 1018.55 1018.55 1018.55 1018.47 1018.39 1018.43 1018.47 1018.27 1018.11 1017.91 1017.67 1017.51 1017.39 1017.31 1017.19 1017.03 1016.91 1016.83 1016.59 1016.51 1016.39 1016.23 1015.99 1015.87 1015.83 1015.79 1015.71 1015.67 1015.75 1015.79 1015.79 1015.75 1015.79 1015.67 1015.59
1021.03 1020.87 1020.79 1020.75 1020.75 1020.67 1020.59 1020.43 1020.27 1020.27 1020.27 1020.11 1019.87 1019.63 1019.47 1019.35 1019.27 1019.23 1019.27 1019.27 1019.19 1019.07 1018.95 1018.87 1018.79 1018.71 1018.59 1018.63 1018.63 1018.67 1018.67 1018.67 1018.55 1018.39 1018.23 1018.15 1018.07 1017.99 1017.91 1017.79 1017.59 1017.39 1017.27 1017.19 1017.11 1016.91 1016.67 1016.55 1016.39 1016.15 1015.95 1015.91 1015.87 1016.11 1016.19 1016.11 1016.03 1016.31 1016.11 1016.15 1016.15 1016.07 1015.79
1021.03 1020.91 1020.75 1020.71 1020.71 1020.75 1020.71 1020.55 1020.31 1020.15 1020.07 1019.87 1019.67 1019.55 1019.51 1019.43 1019.35 1019.27 1019.19 1019.15 1019.11 1019.11 1019.07 1018.95 1018.91 1018.87 1018.79 1018.71 1018.71 1018.79 1018.79 1018.71 1018.55 1018.43 1018.27 1018.11 1017.95 1017.87 1017.87 1017.91 1017.83 1017.63 1017.43 1017.39 1017.23 1016.99 1016.83 1016.75 1016.59 1016.39 1016.31 1016.43 1016.23 1016.19 1016.27 1016.35 1016.27 1016.31 1016.27 1016.39 1016.31 1016.51 1015.91
1020.95 1020.87 1020.67 1020.55 1020.55 1020.63 1020.63 1020.55 1020.35 1020.15 1019.95 1019.79 1019.63 1019.51 1019.43 1019.39 1019.43 1019.35 1019.27 1019.07 1019.03 1019.07 1019.07 1019.07 1019.03 1018.99 1018.91 1018.83 1018.79 1018.75 1018.71 1018.67 1018.59 1018.51 1018.39 1018.27 1018.19 1018.07 1017.95 1017.87 1017.83 1017.75 1017.63 1017.47 1017.39 1017.15 1016.99 1016.79 1016.75 1016.63 1016.43 1016.39 1016.31 1016.35 1016.31 1016.43 1016.51 1016.59 1016.59 1016.59 1016.55 1016.51 1016.67
1020.95 1020.79 1020.63 1020.51 1020.47 1020.55 1020.55 1020.51 1020.35 1020.19 1019.95 1019.75 1019.59 1019.43 1019.35 1019.39 1019.43 1019.43 1019.27 1019.07 1019.03 1019.03 1019.07 1019.15 1019.19 1019.19 1019.07 1018.95 1018.75 1018.63 1018.59 1018.63 1018.63 1018.55 1018.47 1018.31 1018.15 1018.07 1017.95 1017.83 1017.63 1017.51 1017.43 1017.31 1017.27 1017.11 1016.99 1016.83 1016.87 1016.87 1016.79 1016.59 1016.71 1016.63 1017.07 1016.87 1016.95 1016.87 1016.75 1016.75 1016.75 1016.71 1016.47
1020.83 1020.71 1020.63 1020.47 1020.43 1020.43 1020.51 1020.47 1020.35 1020.23 1019.91 1019.67 1019.51 1019.35 1019.27 1019.31 1019.39 1019.39 1019.31 1019.19 1019.07 1018.95 1018.95 1018.95 1018.99 1018.99 1018.95 1018.83 1018.79 1018.71 1018.67 1018.67 1018.63 1018.67 1018.67 1018.67 1018.59 1018.43 1018.23 1018.07 1017.95 1017.83 1017.67 1017.51 1017.43 1017.27 1017.23 1016.91 1016.87 1016.99 1016.71 1016.67 1016.67 1016.87 1016.95 1016.91 1017.15 1016.99 1017.07 1016.95 1016.91 1016.63 1016.63
1020.67 1020.51 1020.39 1020.31 1020.27 1020.31 1020.35 1020.35 1020.23 1020.07 1019.83 1019.55 1019.35 1019.23 1019.19 1019.27 1019.35 1019.27 1019.15 1018.99 1018.87 1018.79 1018.75 1018.75 1018.83 1018.91 1018.91 1018.83 1018.79 1018.71 1018.63 1018.55 1018.55 1018.55 1018.59 1018.59 1018.55 1018.47 1018.39 1018.31 1018.23 1018.11 1017.95 1017.79 1017.63 1017.51 1017.35 1017.23 1017.11 1017.07 1016.99 1016.95 1016.87 1016.95 1017.03 1017.03 1017.15 1017.11 1017.07 1016.87 1016.67 1016.51 1016.51
1020.31 1020.23 1020.15 1020.07 1020.07 1020.15 1020.11 1020.07 1019.99 1019.87 1019.67 1019.43 1019.23 1019.07 1019.15 1019.27 1019.23 1019.11 1018.91 1018.71 1018.59 1018.55 1018.55 1018.59 1018.71 1018.79 1018.79 1018.75 1018.71 1018.55 1018.47 1018.43 1018.43 1018.47 1018.47 1018.43 1018.43 1018.43 1018.39 1018.31 1018.11 1017.91 1017.67 1017.55 1017.43 1017.35 1017.27 1017.19 1017.07 1016.95 1016.83 1016.83 1016.83 1016.83 1016.83 1016.87 1016.79 1016.79 1016.87 1016.87 1016.71 1016.47 1016.15
1020.03 1019.87 1019.83 1019.75 1019.79 1019.83 1019.87 1019.87 1019.75 1019.67 1019.55 1019.39 1019.15 1018.99 1019.15 1019.23 1019.19 1019.07 1018.87 1018.63 1018.43 1018.35 1018.35 1018.47 1018.51 1018.59 1018.59 1018.59 1018.55 1018.43 1018.39 1018.35 1018.31 1018.35 1018.35 1018.39 1018.43 1018.31 1018.23 1018.07 1017.87 1017.79 1017.67 1017.51 1017.35 1017.15 1016.95 1016.79 1016.63 1016.59 1016.47 1016.43 1016.47 1016.55 1016.67 1016.79 1016.91 1017.07 1016.91 1016.95 1016.71 1016.31 1016.03
1019.75 1019.63 1019.55 1019.51 1019.47 1019.47 1019.55 1019.47 1019.39 1019.35 1019.31 1019.19 1018.99 1018.83 1018.95 1019.03 1019.03 1018.95 1018.75 1018.51 1018.27 1018.15 1018.19 1018.23 1018.23 1018.23 1018.31 1018.39 1018.35 1018.31 1018.35 1018.31 1018.27 1018.27 1018.31 1018.35 1018.35 1018.27 1018.07 1017.83 1017.67 1017.67 1017.71 1017.59 1017.39 1017.15 1017.03 1016.99 1016.91 1016.87 1016.87 1016.83 1016.79 1016.75 1016.79 1017.03 1017.03 1016.67 1016.63 1016.75 1016.27 1016.31 1015.87
1019.55 1019.47 1019.35 1019.23 1019.15 1019.11 1019.11 1019.11 1019.11 1019.03 1018.99 1018.95 1018.79 1018.59 1018.63 1018.71 1018.79 1018.71 1018.55 1018.31 1018.07 1017.95 1017.95 1017.95 1017.87 1017.75 1017.71 1017.79 1017.91 1017.95 1018.03 1018.03 1018.03 1018.03 1018.03 1018.11 1018.07 1018.07 1017.95 1017.87 1017.79 1017.79 1017.67 1017.47 1017.27 1017.15 1017.03 1017.07 1017.07 1017.07 1017.15 1017.15 1017.07 1016.95 1016.87 1016.79 1016.71 1016.67 1016.71 1016.59 1016.39 1016.35 1016.39
1019.23 1019.11 1018.99 1018.91 1018.83 1018.79 1018.79 1018.79 1018.75 1018.75 1018.63 1018.63 1018.55 1018.35 1018.31 1018.39 1018.51 1018.43 1018.23 1018.07 1017.91 1017.79 1017.67 1017.63 1017.59 1017.51 1017.47 1017.43 1017.43 1017.47 1017.63 1017.75 1017.71 1017.75 1017.79 1017.87 1018.03 1018.03 1017.99 1017.75 1017.75 1017.51 1017.31 1017.11 1017.03 1017.07 1017.07 1017.07 1017.07 1017.15 1017.11 1017.03 1016.91 1016.79 1016.67 1016.55 1016.51 1016.51 1016.47 1016.39 1016.23 1016.19 1016.15
1019.03 1018.87 1018.75 1018.71 1018.67 1018.67 1018.59 1018.59 1018.47 1018.35 1018.27 1018.15 1018.11 1017.99 1017.99 1018.07 1018.07 1018.07 1018.03 1017.95 1017.83 1017.71 1017.63 1017.55 1017.47 1017.43 1017.35 1017.19 1017.07 1017.03 1017.15 1017.27 1017.31 1017.35 1017.47 1017.55 1017.67 1017.55 1017.47 1017.39 1017.39 1017.19 1017.03 1016.95 1016.95 1016.91 1016.91 1016.91 1016.87 1016.79 1016.67 1016.59 1016.47 1016.31 1016.19 1016.11 1016.03 1015.99 1016.03 1016.07 1016.11 1016.07 1015.91
1018.91 1018.79 1018.63 1018.59 1018.55 1018.43 1018.31 1018.15 1018.03 1017.91 1017.83 1017.71 1017.63 1017.59 1017.55 1017.71 1017.71 1017.71 1017.83 1017.83 1017.71 1017.59 1017.51 1017.43 1017.43 1017.39 1017.23 1017.03 1016.91 1016.75 1016.79 1016.87 1016.99 1017.11 1017.19 1017.23 1017.19 1017.15 1017.07 1016.99 1016.87 1016.87 1016.95 1016.99 1016.95 1016.87 1016.79 1016.67 1016.55 1016.43 1016.35 1016.23 1016.03 1015.83 1015.63 1015.55 1015.51 1015.43 1015.39 1015.43 1015.43 1015.51 1015.55
1018.83 1018.71 1018.55 1018.43 1018.35 1018.19 1018.03 1017.83 1017.63 1017.39 1017.31 1017.27 1017.27 1017.27 1017.31 1017.27 1017.39 1017.35 1017.35 1017.51 1017.51 1017.47 1017.39 1017.35 1017.31 1017.19 1017.07 1016.95 1016.83 1016.75 1016.79 1016.83 1016.87 1016.95 1016.95 1016.95 1016.95 1016.87 1016.79 1016.75 1016.71 1016.75 1016.83 1016.83 1016.79 1016.71 1016.59 1016.43 1016.35 1016.23 1016.03 1015.79 1015.55 1015.27 1015.11 1015.03 1014.95 1014.91 1014.87 1014.87 1014.79 1014.71 1014.71
1018.47 1018.39 1018.31 1018.23 1018.03 1017.83 1017.59 1017.31 1017.11 1016.91 1016.79 1016.79 1016.87 1016.95 1017.03 1017.11 1017.11 1017.11 1017.15 1017.27 1017.31 1017.35 1017.31 1017.27 1017.19 1017.07 1016.91 1016.75 1016.63 1016.63 1016.67 1016.71 1016.79 1016.79 1016.75 1016.79 1016.75 1016.75 1016.67 1016.63 1016.59 1016.59 1016.59 1016.55 1016.51 1016.43 1016.31 1016.19 1016.07 1015.91 1015.75 1015.51 1015.23 1015.03 1014.83 1014.79 1014.75 1014.71 1014.67 1014.67 1014.67 1014.63 1014.55
1018.03 1017.87 1017.67 1017.47 1017.23 1017.03 1016.83 1016.67 1016.51 1016.39 1016.35 1016.39 1016.55 1016.71 1016.87 1016.95 1016.95 1016.95 1016.95 1016.99 1017.03 1017.11 1017.15 1017.11 1016.99 1016.87 1016.75 1016.67 1016.59 1016.55 1016.59 1016.55 1016.59 1016.59 1016.55 1016.55 1016.51 1016.51 1016.51 1016.43 1016.43 1016.39 1016.43 1016.43 1016.27 1016.11 1015.95 1015.79 1015.63 1015.47 1015.31 1015.15 1014.99 1014.83 1014.71 1014.63 1014.51 1014.51 1014.47 1014.43 1014.43 1014.39 1014.35
1017.59 1017.43 1017.31 1017.15 1016.87 1016.71 1016.55 1016.35 1016.23 1016.07 1016.03 1016.23 1016.43 1016.59 1016.71 1016.79 1016.79 1016.79 1016.79 1016.79 1016.87 1016.91 1016.91 1016.87 1016.79 1016.67 1016.59 1016.55 1016.51 1016.59 1016.63 1016.63 1016.51 1016.39 1016.27 1016.15 1016.03 1015.99 1015.95 1015.95 1015.99 1015.99 1015.99 1015.87 1015.75 1015.71 1015.55 1015.43 1015.27 1015.07 1014.91 1014.79 1014.71 1014.63 1014.51 1014.39 1014.39 1014.35 1014.35 1014.35 1014.31 1014.27 1014.15
1017.47 1017.19 1016.95 1016.75 1016.63 1016.47 1016.31 1016.23 1016.07 1015.91 1015.87 1016.15 1016.39 1016.51 1016.59 1016.67 1016.67 1016.59 1016.63 1016.71 1016.75 1016.79 1016.75 1016.67 1016.55 1016.47 1016.35 1016.27 1016.19 1016.19 1016.11 1016.11 1015.99 1015.99 1015.87 1015.83 1015.75 1015.67 1015.55 1015.47 1015.51 1015.59 1015.59 1015.55 1015.51 1015.39 1015.23 1015.07 1014.91 1014.79 1014.67 1014.63 1014.51 1014.43 1014.31 1014.23 1014.23 1014.23 1014.23 1014.11 1014.03 1013.99 1013.87
1017.27 1017.11 1016.83 1016.63 1016.39 1016.27 1016.15 1016.03 1015.91 1015.75 1015.67 1015.75 1015.99 1016.15 1016.27 1016.39 1016.51 1016.55 1016.51 1016.55 1016.55 1016.51 1016.43 1016.31 1016.11 1016.03 1015.99 1016.03 1016.07 1016.07 1016.03 1015.95 1015.87 1015.75 1015.67 1015.63 1015.59 1015.51 1015.39 1015.23 1015.15 1015.15 1015.19 1015.19 1015.11 1015.03 1014.83 1014.71 1014.59 1014.55 1014.47 1014.43 1014.39 1014.35 1014.27 1014.15 1014.11 1014.03 1014.03 1013.95 1013.91 1013.87 1013.71
1017.23 1017.03 1016.87 1016.71 1016.55 1016.43 1016.27 1016.07 1015.99 1015.83 1015.83 1015.83 1015.83 1015.87 1015.91 1015.99 1016.07 1016.07 1016.11 1016.07 1015.99 1015.95 1016.03 1016.03 1016.07 1016.07 1016.03 1016.03 1015.95 1015.87 1015.75 1015.63 1015.51 1015.35 1015.15 1015.11 1015.11 1015.11 1015.03 1014.99 1014.91 1014.87 1014.75 1014.75 1014.71 1014.67 1014.59 1014.59 1014.55 1014.55 1014.47 1014.39 1014.31 1014.19 1014.11 1013.99 1013.99 1013.91 1013.99 1013.87 1013.79 1013.71 1013.47
1017.03 1016.91 1016.91 1016.79 1016.59 1016.55 1016.51 1016.35 1016.03 1015.83 1015.71 1015.75 1015.83 1015.79 1015.79 1015.79 1015.79 1015.83 1015.91 1015.99 1015.99 1015.95 1016.07 1016.03 1016.07 1015.99 1015.99 1015.87 1015.75 1015.59 1015.39 1015.19 1015.03 1014.83 1014.71 1014.59 1014.51 1014.47 1014.55 1014.47 1014.43 1014.39 1014.39 1014.35 1014.31 1014.35 1014.39 1014.39 1014.39 1014.39 1014.31 1014.23 1014.11 1013.95 1013.83 1013.71 1013.67 1013.75 1013.71 1013.75 1013.63 1013.55 1013.39
1016.59 1016.51 1016.47 1016.47 1016.39 1016.27 1016.23 1016.03 1015.91 1015.83 1015.67 1015.55 1015.55 1015.55 1015.55 1015.59 1015.59 1015.63 1015.71 1015.75 1015.91 1015.95 1015.91 1015.87 1015.79 1015.63 1015.63 1015.47 1015.39 1015.23 1014.99 1014.79 1014.59 1014.39 1014.23 1014.11 1013.99 1013.91 1013.91 1013.91 1013.95 1013.99 1013.99 1014.03 1014.03 1013.99 1013.99 1013.99 1013.95 1013.91 1013.83 1013.79 1013.67 1013.59 1013.55 1013.59 1013.55 1013.55 1013.55 1013.55 1013.51 1013.47 1013.31
1016.11 1015.99 1015.95 1015.91 1015.95 1015.99 1015.95 1015.87 1015.79 1015.71 1015.63 1015.51 1015.43 1015.39 1015.39 1015.39 1015.43 1015.43 1015.47 1015.55 1015.59 1015.59 1015.39 1015.43 1015.39 1015.27 1015.19 1015.11 1014.99 1014.63 1014.47 1014.27 1014.11 1013.95 1013.83 1013.71 1013.59 1013.51 1013.51 1013.55 1013.63 1013.63 1013.67 1013.71 1013.71 1013.71 1013.67 1013.63 1013.59 1013.55 1013.55 1013.51 1013.51 1013.47 1013.47 1013.47 1013.51 1013.51 1013.51 1013.43 1013.39 1013.27 1013.11
1015.83 1015.63 1015.55 1015.51 1015.47 1015.51 1015.51 1015.47 1015.43 1015.47 1015.43 1015.39 1015.27 1015.19 1015.19 1015.15 1015.15 1015.15 1015.19 1015.31 1015.35 1015.19 1014.99 1014.99 1014.99 1014.91 1014.83 1014.79 1014.55 1014.31 1014.15 1013.91 1013.75 1013.59 1013.47 1013.39 1013.31 1013.27 1013.19 1013.19 1013.19 1013.23 1013.27 1013.31 1013.35 1013.35 1013.39 1013.39 1013.39 1013.39 1013.39 1013.35 1013.35 1013.35 1013.43 1013.35 1013.39 1013.35 1013.31 1013.27 1013.23 1013.07 1012.91
1015.55 1015.35 1015.23 1015.07 1015.03 1015.03 1015.07 1015.03 1014.99 1014.99 1015.03 1015.03 1015.03 1014.99 1014.95 1014.95 1014.87 1014.83 1014.87 1015.03 1014.99 1014.99 1014.83 1014.79 1014.79 1014.63 1014.47 1014.31 1014.11 1013.91 1013.75 1013.51 1013.35 1013.23 1013.11 1012.99 1012.95 1012.91 1012.95 1012.99 1013.03 1013.03 1013.03 1013.07 1013.07 1013.07 1013.15 1013.23 1013.31 1013.35 1013.39 1013.39 1013.35 1013.31 1013.27 1013.27 1013.19 1013.19 1013.19 1013.15 1013.03 1012.99 1012.83
1015.47 1015.23 1015.07 1014.91 1014.75 1014.63 1014.59 1014.59 1014.63 1014.63 1014.63 1014.67 1014.67 1014.71 1014.67 1014.71 1014.71 1014.67 1014.71 1014.75 1014.63 1014.55 1014.47 1014.43 1014.27 1014.15 1013.91 1013.79 1013.63 1013.43 1013.35 1013.11 1012.95 1012.87 1012.75 1012.67 1012.63 1012.67 1012.71 1012.79 1012.83 1012.83 1012.87 1012.91 1012.99 1012.99 1013.03 1013.11 1013.19 1013.27 1013.31 1013.31 1013.31 1013.23 1013.15 1013.03 1013.03 1012.95 1012.95 1012.91 1012.79 1012.71 1012.59
1015.19 1015.03 1014.75 1014.51 1014.31 1014.23 1014.23 1014.23 1014.23 1014.23 1014.27 1014.31 1014.35 1014.39 1014.51 1014.51 1014.35 1014.43 1014.39 1014.39 1014.27 1014.15 1013.95 1013.91 1013.75 1013.67 1013.47 1013.39 1013.23 1013.03 1012.87 1012.67 1012.55 1012.43 1012.43 1012.39 1012.39 1012.43 1012.47 1012.55 1012.59 1012.63 1012.67 1012.67 1012.75 1012.79 1012.87 1012.91 1012.99 1013.03 1013.03 1013.03 1012.95 1012.83 1012.79 1012.79 1012.71 1012.67 1012.63 1012.55 1012.51 1012.43 1012.35
Wind_Speed
6 6 6 6 7 7 6 7 7 7 6 6 6 7 6 8 8 8 7 6 7 6 5 4 4 4 4 4 4 4 4 3 3 3 3 3 3 3 3 4 5 7 7 4 2 4 3 2 2 1 4 5 4 4 4 5 5 6 5 5 5 5 10
5 5 5 5 6 6 6 6 7 7 5 6 7 6 6 7 7 7 7 7 6 7 7 7 6 5 5 4 5 5 5 5 5 3 3 3 3 3 3 3 4 5 5 6 2 2 2 3 4 4 4 7 6 6 4 5 6 5 6 6 6 5 5
5 5 5 5 5 6 6 7 6 5 5 5 6 6 5 5 5 5 6 6 6 6 6 6 6 6 6 6 6 6 5 5 5 5 4 4 3 3 4 4 3 4 5 4 4 2 2 2 2 2 3 4 5 7 7 7 6 6 5 5 6 6 6
5 5 5 5 5 5 5 6 5 6 5 5 5 5 4 5 5 4 4 4 4 5 4 5 5 5 5 5 5 5 6 6 5 5 5 5 5 4 4 3 3 3 3 3 4 2 2 2 2 3 3 3 1 1 3 4 5 4 5 5 5 6 5
4 3 4 4 4 4 5 5 4 5 5 5 5 4 3 4 4 4 4 3 3 4 3 4 4 4 4 4 4 5 5 5 7 6 6 5 5 4 4 4 3 3 2 3 4 3 2 2 2 2 2 2 3 4 2 1 2 4 7 6 6 5 5
3 3 3 3 3 4 4 4 4 4 4 5 5 5 3 3 3 3 3 3 3 3 3 2 3 3 3 3 3 3 4 4 5 5 5 5 5 5 4 4 4 4 4 3 3 1 2 2 3 4 3 3 4 4 5 5 4 3 2 3 3 3 4
2 3 2 3 3 3 3 3 3 3 4 4 5 5 4 3 3 3 4 4 4 3 3 3 3 2 3 3 3 3 3 4 5 4 5 5 5 5 5 6 5 5 5 4 3 3 3 3 3 3 5 5 5 5 4 4 5 7 3 2 3 4 3
3 3 2 3 3 3 3 3 3 3 4 5 5 5 4 3 3 3 3 4 4 4 3 3 3 3 3 3 2 3 4 4 4 4 4 4 4 4 5 5 4 4 5 5 5 5 6 5 5 4 5 5 5 5 4 3 4 6 4 4 2 2 2
4 3 3 3 3 3 3 3 2 1 3 5 6 6 5 4 3 3 3 3 3 3 3 2 2 2 3 4 6 8 7 7 7 4 4 5 5 5 4 3 3 3 3 4 4 4 4 4 4 3 3 3 3 6 6 3 1 1 2 3 2 4 2
4 3 3 3 3 3 3 3 2 3 6 7 5 5 4 4 4 3 3 4 4 3 3 2 2 2 6 8 8 8 9 9 9 10 7 5 4 5 5 4 4 4 3 4 5 4 3 4 4 3 3 2 1 2 3 4 3 3 3 3 2 2 2
3 4 3 2 2 3 3 3 4 7 8 9 11 7 4 4 4 4 5 5 5 3 2 2 2 2 4 6 6 5 8 9 9 9 10 11 10 8 5 4 5 5 3 3 3 3 3 3 3 3 3 2 3 3 3 2 3 3 3 2 3 4 3
3 4 4 3 2 2 3 3 6 9 10 10 11 10 6 3 3 4 6 6 4 3 2 2 2 3 3 3 4 5 5 7 8 9 9 9 10 10 11 10 6 4 4 5 5 5 4 4 4 3 3 4 3 4 4 4 3 2 2 3 3 3 1
4 4 4 4 3 3 4 3 7 9 11 11 11 11 9 3 3 4 6 4 3 3 3 2 3 4 4 5 9 7 4 3 3 6 9 10 9 8 9 9 11 12 8 5 6 6 6 5 3 3 2 1 1 1 1 2 3 3 3 3 4 3 2
5 5 5 5 4 4 4 5 6 10 12 12 12 11 10 3 4 5 6 6 5 4 4 3 3 4 4 4 4 3 4 3 3 3 3 4 5 4 5 7 9 9 9 7 3 3 3 2 2 2 1 2 3 2 2 2 3 3 4 5 4 4 4
5 5 5 5 5 4 5 5 9 11 12 12 12 12 9 3 4 4 5 5 5 5 5 4 3 3 5 6 6 5 6 5 4 3 4 4 4 4 3 4 5 5 5 5 4 4 4 4 4 3 3 3 3 2 2 2 3 3 4 6 7 8 6
5 5 6 6 5 5 6 6 10 12 12 13 12 12 4 3 5 5 6 6 6 4 4 3 3 4 6 6 6 8 11 9 6 4 5 5 4 4 4 4 6 9 8 6 5 4 4 4 5 9 8 7 6 5 5 7 9 7 6 6 7 8 7
5 5 5 6 5 6 6 6 8 11 12 12 14 10 3 4 5 5 6 6 5 5 4 4 4 5 6 5 5 8 11 11 11 6 5 5 6 6 5 5 4 5 9 12 13 14 15 15 15 16 17 18 18 11 5 3 3 4 4 5 6 7 6
5 5 5 5 6 6 7 7 8 11 11 13 14 11 6 5 5 6 6 7 5 4 4 5 11 10 7 7 7 9 12 12 10 6 5 6 7 9 8 7 4 5 4 9 12 11 11 11 10 10 10 11 12 11 8 4 7 5 3 7 8 7 7
6 7 6 6 7 8 9 7 8 11 12 14 15 12 5 5 5 6 6 6 6 5 5 6 8 12 10 7 8 11 13 14 11 7 5 5 5 6 6 6 4 5 6 6 5 4 3 4 4 4 4 5 10 13 11 6 7 5 6 9 8 8 6
6 7 6 6 6 6 6 7 7 8 13 14 16 16 8 5 6 7 7 6 6 5 5 4 5 6 8 11 13 14 15 13 13 9 4 3 4 6 9 5 6 6 6 5 3 4 4 5 5 6 5 6 7 8 7 9 7 6 6 8 8 7 8
7 7 7 5 5 6 7 8 10 10 13 15 15 16 13 6 7 7 6 6 7 6 5 5 5 4 7 12 13 13 14 15 14 11 6 5 6 7 8 8 6 7 11 7 5 4 5 6 6 6 6 6 7 7 7 7 8 8 7 8 8 7 8
8 8 8 7 7 8 9 9 13 10 11 15 15 16 16 9 7 7 7 7 6 6 6 5 4 4 7 10 10 10 12 14 13 13 7 7 13 15 15 10 7 4 3 4 6 6 7 7 6 6 6 6 7 8 9 7 8 8 8 8 8 9 8
9 9 9 8 8 8 9 10 11 14 12 11 14 15 14 14 9 10 8 6 6 6 6 4 4 5 8 12 12 11 12 12 14 12 9 14 14 14 15 13 7 6 6 7 7 6 6 6 6 6 7 7 7 7 6 6 7 8 8 8 8 8 8
8 8 9 9 9 8 8 9 9 9 14 11 12 12 13 14 15 13 7 5 5 5 5 6 5 5 9 12 12 12 12 12 13 9 14 15 15 15 14 8 7 5 6 6 6 7 8 7 6 6 6 7 6 6 6 4 2 2 2 2 4 5 5
7 8 7 7 7 6 6 6 6 6 9 13 11 11 11 12 12 14 15 9 6 6 5 7 11 13 14 13 14 14 14 13 14 17 17 18 19 17 9 8 7 7 6 8 8 8 7 7 6 7 7 7 6 6 4 3 4 3 4 4 5 5 6
7 7 7 8 7 6 6 6 6 7 4 7 7 6 8 11 11 12 14 13 9 11 13 13 14 15 15 14 12 9 7 7 8 14 17 17 16 9 8 8 7 7 8 8 7 7 7 6 5 6 7 5 5 6 6 4 3 4 5 5 5 6 7
8 8 8 7 6 6 6 6 6 7 4 5 5 5 5 6 7 10 10 8 7 8 8 10 10 8 11 10 13 13 12 11 12 10 9 7 7 6 6 6 6 7 7 7 6 7 6 6 7 6 4 5 5 6 5 4 4 5 6 5 5 6 6
7 7 7 6 6 6 5 6 5 6 5 5 6 6 7 6 6 6 6 7 7 7 8 7 7 8 4 3 5 6 5 6 7 8 9 7 7 7 8 9 12 10 7 7 7 7 6 5 4 4 5 4 4 5 4 4 5 4 5 5 5 5 6
7 8 7 7 6 6 6 5 5 2 3 2 2 3 2 1 1 1 1 3 7 5 1 2 4 4 6 6 6 6 6 7 7 7 8 8 7 7 7 7 6 8 8 7 7 7 6 6 4 6 4 5 6 6 6 6 6 4 4 4 4 6 6
10 8 7 7 8 6 6 5 4 6 5 4 3 5 5 6 6 6 7 8 11 9 6 5 5 6 6 7 6 7 7 7 6 7 7 7 7 8 7 8 7 7 7 6 6 6 5 6 5 6 6 7 7 7 6 5 5 4 4 4 5 5 5
19 20 18 13 9 8 16 18 17 15 14 13 12 12 12 12 13 13 13 13 8 7 7 6 6 7 6 7 7 8 8 8 7 7 6 7 7 7 7 8 7 7 6 7 6 6 6 7 7 7 6 7 6 6 5 4 4 4 5 6 6 6 6
17 18 17 18 16 13 8 14 18 18 18 17 17 16 16 16 15 15 13 12 12 8 7 7 7 7 7 6 7 8 7 7 7 7 7 7 6 6 5 6 6 6 7 7 7 6 6 5 6 6 4 5 5 6 5 5 5 5 6 6 6 6 7
14 15 16 17 18 20 17 16 16 17 16 15 14 14 14 14 14 14 14 13 9 7 8 7 7 8 7 7 9 8 8 8 7 7 7 7 7 6 6 6 5 4 6 6 7 7 7 6 6 5 7 6 6 6 5 6 6 6 6 5 5 6 7
12 14 15 16 17 17 18 18 19 19 19 18 18 17 16 14 11 15 16 13 8 7 8 7 7 8 8 8 9 9 8 8 8 7 7 7 7 6 6 6 5 5 6 4 6 6 4 4 4 5 4 5 5 6 6 6 7 5 5 5 6 7 6
7 8 11 11 10 12 15 16 16 16 16 16 16 16 15 14 9 8 7 8 8 8 8 8 8 9 9 8 9 9 8 9 8 7 7 7 6 6 6 6 6 6 6 6 6 6 5 5 5 5 6 6 6 6 6 6 6 6 6 7 7 6 6
7 6 6 12 13 14 13 13 14 14 14 14 15 14 12 8 8 7 8 8 8 8 9 9 9 9 9 8 8 8 8 8 8 7 7 7 6 6 6 6 6 7 6 6 6 7 6 6 6 7 8 7 7 8 8 7 7 6 6 6 6 6 7
Wind_Direction
14 11 9 12 12 10 8 8 15 13 6 9 7 9 11 9 4 1 356 2 351 350 353 349 344 334 328 334 332 315 306 276 256 253 255 255 257 250 236 222 234 244 262 263 237 251 278 294 127 181 197 198 210 212 217 200 207 203 201 207 212 222 237
12 11 13 16 16 14 13 13 13 10 8 9 8 8 16 12 9 7 1 4 3 3 4 354 349 341 339 342 330 318 317 327 329 299 253 245 252 256 255 240 230 250 254 264 244 252 259 255 254 251 189 193 197 223 215 211 217 209 204 206 201 210 225
6 8 14 19 19 18 16 15 10 3 8 2 6 5 5 10 8 13 8 4 360 359 357 0 359 350 355 350 345 329 318 321 316 319 319 303 272 253 250 249 242 244 257 263 258 226 249 245 285 236 244 205 210 211 206 213 218 216 213 208 207 212 220
353 2 9 17 17 18 19 14 7 3 1 360 1 360 1 359 358 360 8 3 354 358 357 350 346 337 349 346 340 329 329 323 322 320 312 301 297 287 270 259 260 254 258 266 265 255 226 264 243 288 290 305 338 182 215 223 234 220 208 213 219 217 221
349 358 355 2 8 12 13 9 2 359 357 352 349 344 356 355 359 354 354 349 347 339 351 339 335 325 338 341 324 314 314 312 311 312 311 306 314 326 332 336 324 301 290 263 259 274 295 311 317 270 308 323 331 310 315 266 204 199 205 220 222 215 219
351 347 359 341 356 356 2 0 354 355 357 344 337 337 342 342 346 342 335 331 334 339 324 318 312 318 322 319 311 298 301 316 319 323 315 318 317 320 329 329 323 333 334 333 272 256 296 336 306 321 304 301 330 321 305 304 303 317 294 209 228 225 217
358 322 8 328 346 338 347 350 346 347 348 338 329 329 333 332 344 340 337 333 332 339 348 348 347 339 330 327 320 315 303 305 309 303 296 294 297 300 302 295 292 296 301 298 296 285 238 251 278 260 276 291 279 269 235 240 279 281 288 261 214 263 278
332 325 341 334 336 324 330 331 337 349 341 330 323 317 326 328 322 325 327 327 330 330 336 336 328 330 322 332 342 345 329 329 311 310 303 291 274 263 258 263 268 273 268 267 262 250 259 247 248 259 251 246 249 263 286 258 228 249 264 270 271 212 222
305 317 332 321 328 329 320 320 313 9 324 320 317 320 320 315 311 307 298 303 302 290 291 300 302 322 347 328 318 313 308 299 289 287 281 291 305 308 297 277 258 262 259 259 249 255 233 241 243 246 246 274 237 217 225 280 330 277 263 260 313 315 306
297 290 293 311 305 321 320 304 303 289 305 305 302 308 316 309 301 289 273 268 267 269 275 290 315 318 317 314 306 302 298 296 294 289 283 268 279 297 307 307 297 276 270 269 271 269 283 277 262 248 254 235 293 19 6 11 6 16 299 9 332 300 288
285 285 268 263 277 287 289 291 291 287 289 302 305 304 303 300 291 288 279 263 254 255 274 287 319 335 299 292 300 305 299 294 292 293 293 293 285 274 265 271 274 275 281 273 260 262 273 271 275 292 320 341 314 348 338 321 323 318 339 338 314 290 312
280 278 269 257 251 258 271 282 285 286 287 293 296 293 286 286 289 282 273 261 249 252 270 300 314 307 304 288 275 261 263 279 286 289 293 296 296 294 292 282 273 265 261 261 264 266 260 262 263 266 299 304 350 323 355 347 1 336 315 309 300 264 226
274 275 281 271 250 254 262 271 280 281 285 286 288 288 287 272 268 276 277 265 256 243 240 239 256 264 264 264 270 271 275 284 306 300 291 286 285 288 281 279 275 268 265 267 270 261 254 241 263 283 274 297 297 351 76 298 320 296 297 273 263 255 270
259 261 262 255 243 247 256 260 270 275 278 283 284 286 287 275 269 266 268 273 271 262 250 249 253 265 277 282 295 302 294 285 268 272 296 304 302 296 302 304 304 310 312 314 304 301 281 308 358 284 295 326 5 8 289 305 290 290 302 288 273 280 292
250 251 245 246 240 234 253 257 264 271 274 276 280 281 285 288 278 271 266 258 257 260 258 253 257 266 275 281 281 271 270 261 256 262 264 264 270 280 288 291 297 303 303 297 293 287 288 293 308 306 314 313 319 328 279 258 258 266 266 277 283 279 268
244 247 249 246 237 237 253 258 262 270 273 274 277 280 281 277 270 262 257 251 241 243 244 241 240 250 252 256 265 273 276 279 275 259 258 266 275 280 270 255 252 265 267 269 275 275 265 254 263 275 277 275 272 267 264 276 274 271 265 264 256 253 246
240 239 237 237 230 232 244 252 257 263 266 267 269 276 274 269 272 270 269 262 249 236 231 231 237 243 250 254 257 266 273 275 274 267 262 271 278 276 278 271 268 292 297 292 290 284 277 272 268 265 266 266 268 275 291 286 257 234 240 257 258 265 264
256 253 246 241 239 232 239 247 248 252 258 262 266 266 246 233 244 249 249 255 248 228 219 224 237 240 230 234 237 247 260 268 269 266 258 257 265 270 271 279 295 314 300 282 278 279 281 285 291 295 303 303 301 300 298 256 250 255 283 266 264 268 267
258 257 247 242 239 232 234 241 244 246 249 255 263 264 246 239 239 249 252 248 249 238 224 234 239 245 245 231 230 237 255 258 261 255 247 250 263 271 272 265 290 285 288 283 275 276 283 303 305 307 303 294 286 279 277 264 253 247 231 250 252 256 272
245 249 244 237 237 240 239 246 247 242 246 249 252 256 248 214 223 239 243 249 242 251 263 246 244 248 249 256 258 252 248 250 254 252 240 238 250 258 262 255 247 249 249 259 275 274 280 276 269 268 264 262 258 256 250 250 245 232 227 235 241 237 232
260 259 259 250 252 254 254 251 254 248 242 242 243 245 246 224 228 230 236 242 254 248 244 249 250 246 247 254 259 255 248 248 251 251 245 239 241 244 257 264 256 263 269 269 268 267 268 262 259 252 251 250 251 249 243 235 233 225 219 222 231 234 241
261 260 261 257 253 254 256 251 248 248 240 240 239 241 243 237 227 220 221 238 240 242 243 243 248 262 267 272 278 271 253 247 247 248 250 255 261 264 264 262 257 257 278 281 277 271 265 258 251 248 244 243 243 242 240 228 227 225 218 218 216 220 230
263 265 264 262 256 255 257 255 255 248 244 236 236 239 242 243 237 231 232 216 232 232 242 245 247 256 272 274 272 266 255 251 253 258 259 261 262 263 264 264 261 255 249 246 245 243 245 244 244 248 248 248 250 249 243 234 225 220 218 220 221 224 226
257 253 253 255 257 252 249 248 244 240 236 230 227 232 238 245 247 243 237 228 227 238 241 247 247 247 257 261 260 257 255 254 254 255 260 261 262 262 263 261 257 248 246 250 249 246 242 241 236 237 246 247 248 250 251 250 256 286 295 288 301 297 291
261 259 261 260 259 252 247 246 245 236 225 221 219 222 232 241 248 251 249 245 238 236 243 256 264 267 265 263 263 264 266 266 264 264 266 265 263 261 254 251 247 247 242 242 240 241 243 243 237 231 234 236 241 254 269 276 287 281 274 277 275 271 264
266 257 255 260 260 263 260 257 264 260 228 198 205 210 226 240 248 254 253 251 251 253 258 261 264 266 269 270 271 273 266 263 259 262 261 259 257 246 239 232 232 232 234 236 237 237 240 236 234 238 238 241 250 256 251 250 260 275 284 273 268 267 269
273 274 271 267 265 264 263 263 260 263 245 182 195 199 215 239 246 251 250 248 249 256 258 260 260 255 256 256 259 260 261 262 264 266 265 264 266 261 244 229 221 222 231 240 240 246 247 244 240 244 252 260 265 263 262 243 246 245 248 240 246 243 253
271 274 275 274 270 266 266 267 264 263 260 226 188 193 205 213 223 222 210 218 226 226 236 236 252 266 281 289 288 273 266 255 248 248 247 244 239 242 243 245 245 241 233 236 238 243 244 247 244 243 246 254 264 260 262 258 255 248 260 260 262 269 264
274 271 277 290 292 293 287 278 278 270 85 47 77 153 149 157 190 252 298 270 266 254 301 307 291 281 266 255 256 253 247 244 243 239 233 231 229 227 227 229 222 229 231 228 231 237 238 246 249 256 257 254 253 251 249 245 246 259 246 266 254 258 263
272 273 275 274 272 276 277 264 254 281 285 272 246 247 245 246 249 252 254 265 269 270 270 258 260 255 257 261 261 264 259 254 245 244 241 239 229 223 220 225 226 224 229 228 230 232 236 240 235 238 232 232 237 242 241 239 234 249 242 244 245 252 253
262 265 265 265 271 264 266 273 277 277 277 276 270 263 256 253 254 259 262 263 266 263 257 262 254 257 249 252 247 251 253 251 251 248 241 239 235 227 219 222 221 228 231 234 234 233 228 230 226 227 223 224 231 234 242 250 250 243 245 242 243 245 249
261 260 260 259 261 264 267 263 264 267 268 267 267 266 264 262 262 261 261 260 259 258 247 236 243 246 245 246 249 250 250 247 244 242 238 240 241 242 227 218 224 224 216 226 230 236 241 236 234 232 235 236 238 242 243 239 251 252 254 256 253 250 254
280 268 260 257 258 259 256 257 259 260 261 263 264 264 262 261 259 257 255 255 250 244 253 244 246 246 247 245 250 252 251 254 252 247 241 232 230 233 236 234 238 232 223 219 220 222 230 236 237 235 234 236 237 239 241 237 236 240 241 245 249 256 255
270 269 264 259 254 252 253 254 257 260 261 260 261 262 263 262 261 261 257 249 245 241 248 246 245 246 245 245 247 249 250 251 251 246 241 236 228 227 231 236 237 243 243 235 230 226 227 229 234 238 239 248 247 242 238 241 242 236 238 243 242 248 251
275 267 263 257 256 253 248 246 248 252 256 259 261 261 262 264 262 255 248 247 244 244 243 242 241 243 245 243 246 247 247 249 247 245 238 232 230 231 233 238 235 235 238 238 236 230 228 224 229 239 240 242 244 243 242 240 238 235 234 239 243 243 249
267 258 256 260 254 246 246 245 243 243 247 254 257 256 255 251 245 247 242 239 237 234 239 236 239 240 246 246 249 250 249 246 244 237 233 229 226 232 229 229 231 231 231 232 226 227 224 227 230 227 229 228 231 231 233 232 231 232 235 234 236 236 240